Station DUKN7 - 8651370 - Duck Pier, NC Image indicating link to RSS feed of recent meteorological observations for station DUKN7


Conditions at DUKN7 as of
(9:18 pm EDT on 04/18/2024)
0118 GMT on 04/19/2024:
     

Click on the graph icon in the table below to see a time series plot of the last five days of that observation.

5-day plot - Wind Direction Wind Direction (WDIR):ENE ( 70 deg true )
5-day plot - Wind Speed Wind Speed (WSPD): 15.9 kts
5-day plot - Wind Gust Wind Gust (GST): 18.1 kts
5-day plot - Atmospheric Pressure Atmospheric Pressure (PRES):30.06 in
5-day plot - Air Temperature Air Temperature (ATMP): 54.7 °F
5-day plot - Wind Speed at 10 Meters Wind Speed at 10 meters (WSPD10M): 15.5 kts
5-day plot - Wind Speed at 20 Meters Wind Speed at 20 meters (WSPD20M): 17.5 kts
5-day plot -  Wind Speed, Wind Gust and Atmospheric Pressure Combined plot of Wind Speed, Gust, and Air Pressure
NOS Water Level Observation Network Water Level
Previous observations
TIME
(EDT)
5-day plot - Wind Direction
WDIR
 
5-day plot - Wind Speed
WSPD
kts
5-day plot - Wind Gust
GST
kts
5-day plot - Wave Height
WVHT
ft
5-day plot - Dominant Wave Period
DPD
sec
5-day plot - Average Wave Period
APD
sec
5-day plot - Mean Wave Direction
MWD
 
5-day plot - Atmospheric Pressure
PRES
in
5-day plot - Pressure Tendency
PTDY
in
5-day plot - Air Temperature
ATMP
°F
5-day plot - Water Temperature
WTMP
°F
5-day plot - Dew Point
DEWP
°F
5-day plot - Salinity
SAL
psu
5-day plot - Visibility
VIS
nmi
5-day plot - Tide (above MLLW)
TIDE
ft
2024-04-18 09:12 pmENE 13.0 15.9----30.06- 54.9-----
2024-04-18 09:06 pmENE 14.0 15.9----30.06- 54.5-----
2024-04-18 09:00 pm E 13.0 15.0----30.05+0.06 54.7-----
2024-04-18 08:54 pmENE 12.0 15.0----30.05- 54.9-----
2024-04-18 08:48 pmENE 14.0 15.9----30.05- 54.7-----
2024-04-18 08:42 pmENE 13.0 15.0----30.04- 55.0-----
2024-04-18 08:36 pm E 13.0 15.0----30.04- 54.9-----
2024-04-18 08:30 pmENE 14.0 15.0----30.04- 54.9-----
2024-04-18 08:24 pm E 14.0 15.9----30.03- 54.7-----
2024-04-18 08:18 pm E 15.0 18.1----30.03- 54.5-----
2024-04-18 08:12 pm E 15.0 17.1----30.03- 54.7-----
2024-04-18 08:06 pmENE 15.9 17.1----30.03- 55.2-----
2024-04-18 08:00 pmENE 14.0 15.9----30.03+0.05 56.1-----
2024-04-18 07:54 pmENE 13.0 15.9----30.02- 56.3-----
2024-04-18 07:48 pm E 11.1 14.0----30.02- 56.7-----
2024-04-18 07:42 pm E 13.0 14.0----30.02- 56.7-----
2024-04-18 07:36 pm E 12.0 13.0----30.01- 56.8-----
2024-04-18 07:30 pm E 11.1 14.0----30.01- 57.0-----
2024-04-18 07:24 pm E 12.0 14.0----30.01- 57.2-----
2024-04-18 07:00 pm E 9.9 12.0----30.00+0.04 57.6-----
2024-04-18 06:54 pm E 9.9 12.0----30.00- 57.7-----
2024-04-18 06:48 pm E 9.9 12.0----30.00- 57.9-----
2024-04-18 06:42 pm E 9.9 13.0----30.00- 57.7-----
2024-04-18 06:36 pm E 11.1 12.0----30.00- 57.7-----
2024-04-18 06:30 pm E 11.1 13.0----30.00- 57.9-----
2024-04-18 06:24 pm E 11.1 12.0----30.00- 57.9-----
2024-04-18 06:18 pm E 9.9 12.0----30.00- 57.9-----
2024-04-18 06:12 pm E 11.1 12.0----30.00- 57.7-----
2024-04-18 06:06 pm E 11.1 12.0----30.00- 57.6-----
2024-04-18 06:00 pm E 11.1 13.0----30.00+0.02------
2024-04-18 05:54 pm E 12.0 13.0----30.00-------
2024-04-18 05:48 pm E 11.1 12.0----30.00- 57.7-----
2024-04-18 05:42 pm E 11.1 13.0----30.00- 57.9-----
2024-04-18 05:36 pm E 12.0 14.0----29.99- 58.3-----
2024-04-18 05:30 pm E 12.0 14.0----29.99- 59.4-----
2024-04-18 05:24 pm E 13.0 14.0----29.99- 59.7-----
2024-04-18 05:18 pm E 12.0 13.0----29.98- 60.3-----
2024-04-18 05:12 pm E 12.0 14.0----29.98- 60.6-----
2024-04-18 05:06 pm E 9.9 12.0----29.98- 61.5-----
2024-04-18 05:00 pm E 11.1 12.0----29.98+0.00 61.9-----
2024-04-18 04:54 pm E 11.1 12.0----29.98- 62.2-----
2024-04-18 04:48 pmENE 11.1 12.0----29.97- 62.2-----
2024-04-18 04:42 pmENE 9.9 11.1----29.97- 62.6-----
2024-04-18 04:36 pmENE 9.9 11.1----29.97- 63.0-----
2024-04-18 04:30 pmENE 9.9 11.1----29.97- 63.3-----
2024-04-18 04:24 pmENE 8.0 9.9----29.97- 64.0-----
2024-04-18 04:18 pmENE 7.0 8.9----29.97- 65.7-----
2024-04-18 04:12 pm E 6.0 7.0----29.96- 68.4-----
2024-04-18 04:06 pm E 6.0 8.0----29.97- 66.4-----
2024-04-18 04:00 pmENE 7.0 8.0----29.96-0.02 64.9-----
2024-04-18 03:54 pmENE 7.0 8.0----29.96- 64.8-----
2024-04-18 03:48 pm NE 7.0 8.0----29.97- 64.8-----
2024-04-18 03:42 pm NE 6.0 7.0----29.97- 64.8-----
2024-04-18 03:36 pm NE 5.1 6.0----29.98- 64.9-----
2024-04-18 03:30 pm NE 5.1 6.0----29.98- 65.1-----
2024-04-18 03:24 pm NE 6.0 7.0----29.97- 65.3-----
2024-04-18 03:18 pm NE 6.0 7.0----29.97- 65.5-----
2024-04-18 03:12 pm NE 6.0 6.0----29.98- 65.7-----
2024-04-18 03:06 pm NE 6.0 6.0----29.98- 65.8-----
2024-04-18 03:00 pm NE 5.1 6.0----29.98-0.01 66.4-----
2024-04-18 02:54 pmENE 4.1 5.1----29.98- 68.7-----
2024-04-18 02:48 pmENE 5.1 6.0----29.98- 67.8-----
2024-04-18 02:42 pm NE 7.0 8.0----29.98- 66.2-----
2024-04-18 02:36 pm NE 8.0 8.0----29.98- 66.0-----
2024-04-18 02:30 pm NE 8.0 8.0----29.98- 65.3-----
2024-04-18 02:24 pmNNE 8.0 8.0----29.98- 65.3-----
2024-04-18 02:18 pmNNE 8.0 8.0----29.98- 65.5-----
2024-04-18 02:12 pmNNE 8.0 8.9----29.98- 65.5-----
2024-04-18 02:06 pmNNE 8.9 11.1----29.98- 65.7-----
2024-04-18 02:00 pmNNE 11.1 11.1----29.98+0.00 65.5-----
2024-04-18 01:54 pmNNE 9.9 11.1----29.98- 65.7-----
2024-04-18 01:48 pmNNE 8.9 9.9----29.98- 66.4-----
2024-04-18 01:42 pmNNE 8.9 9.9----29.98- 66.9-----
2024-04-18 01:36 pm N 8.0 8.9----29.98- 67.6-----
2024-04-18 01:30 pm N 8.0 8.9----29.98- 68.4-----
2024-04-18 01:24 pm N 7.0 7.0----29.98- 69.1-----
2024-04-18 01:18 pm N 7.0 7.0----29.98- 69.6-----
2024-04-18 01:12 pm N 6.0 6.0----29.98- 69.8-----
2024-04-18 01:06 pm N 6.0 6.0----29.98- 70.0-----
2024-04-18 01:00 pm N 7.0 7.0----29.98+0.00 69.8-----
2024-04-18 12:54 pm N 7.0 7.0----29.98- 69.8-----
2024-04-18 12:48 pm N 6.0 6.0----29.98- 69.6-----
2024-04-18 12:42 pm N 6.0 7.0----29.98- 68.7-----
2024-04-18 12:36 pm N 6.0 7.0----29.98- 68.0-----
2024-04-18 12:30 pm N 6.0 7.0----29.98- 68.7-----
2024-04-18 12:24 pm N 7.0 8.0----29.98- 69.6-----
2024-04-18 12:18 pm N 7.0 8.0----29.98- 68.4-----
2024-04-18 12:12 pm N 7.0 8.0----29.99- 67.3-----
2024-04-18 12:06 pm N 6.0 7.0----29.99- 67.5-----
2024-04-18 12:00 pm N 5.1 5.1----29.99+0.02 69.8-----
2024-04-18 11:54 am N 2.9 4.1----29.98- 69.4-----
2024-04-18 11:48 am N 2.9 4.1----29.98- 69.3-----
2024-04-18 11:42 amNNE 2.9 4.1----29.98- 69.3-----
2024-04-18 11:36 am N 2.9 4.1----29.98- 69.3-----
2024-04-18 11:30 am N 2.9 4.1----29.98- 69.6-----
2024-04-18 11:24 am N 4.1 5.1----29.98- 68.9-----
2024-04-18 11:18 amNNE 5.1 6.0----29.98- 66.9-----
2024-04-18 11:12 am NE 5.1 6.0----29.98- 67.6-----
2024-04-18 11:06 am N 4.1 6.0----29.98- 66.0-----
2024-04-18 11:00 am N 5.1 6.0----29.98+0.01 66.4-----
2024-04-18 10:54 am N 2.9 4.1----29.98- 67.3-----
2024-04-18 10:48 am N 2.9 5.1------------
2024-04-18 10:42 amNNW 1.9 2.9------------
2024-04-18 10:36 am NW 1.9 7.0------------
2024-04-18 10:30 amWSW 7.0 8.0----29.98- 70.0-----
2024-04-18 10:24 am W 5.1 8.0----29.98- 70.0-----
2024-04-18 10:18 am W 6.0 8.0----29.98- 69.4-----
2024-04-18 10:12 am W 7.0 9.9----29.98- 69.1-----
2024-04-18 10:06 am W 8.0 8.9----29.98- 68.7-----
2024-04-18 10:00 am W 7.0 9.9----29.98+0.03 68.9-----
2024-04-18 09:54 am W 8.0 11.1----29.98- 68.5-----
2024-04-18 09:48 am W 8.0 9.9----29.98- 68.5-----
2024-04-18 09:42 amWSW 8.9 12.0----29.98- 68.4-----
2024-04-18 09:36 amWSW 8.9 12.0----29.98- 68.4-----
2024-04-18 09:30 amWSW 8.9 11.1----29.97- 68.2-----
2024-04-18 09:24 amWSW 9.9 13.0----29.97- 67.8-----
2024-04-18 09:18 am W 9.9 13.0----29.97- 67.8-----
2024-04-18 09:12 am W 12.0 15.0----29.97- 67.8-----
2024-04-18 09:06 amWSW 11.1 14.0----29.97- 67.6-----
2024-04-18 09:00 amWSW 11.1 15.0----29.97+0.03 67.8-----
2024-04-18 08:54 am W 12.0 15.0----29.97- 67.6-----
2024-04-18 08:48 am W 11.1 15.9----29.97- 67.6-----
2024-04-18 08:42 am W 12.0 14.0----29.97- 67.6-----
2024-04-18 08:36 amWSW 11.1 18.1----29.97- 67.5-----
2024-04-18 08:30 amWSW 9.9 13.0----29.97- 67.5-----
2024-04-18 08:24 am W 9.9 13.0----29.97- 67.6-----
2024-04-18 08:18 amWSW 9.9 12.0----29.97- 67.3-----
2024-04-18 08:12 amWSW 11.1 14.0----29.97- 67.3-----
2024-04-18 08:06 amWSW 12.0 14.0----29.97- 67.3-----
2024-04-18 08:00 amWSW 11.1 14.0----29.97+0.04 67.3-----
2024-04-18 07:54 amWSW 12.0 14.0----29.97- 67.1-----
2024-04-18 07:48 amWSW 11.1 15.0----29.97- 67.1-----
2024-04-18 07:42 amWSW 9.9 15.0----29.96- 67.1-----
2024-04-18 07:36 amWSW 9.9 14.0----29.96- 67.1-----
2024-04-18 07:30 amWSW 11.1 15.9----29.96- 66.9-----
2024-04-18 07:24 amWSW 11.1 14.0----29.96- 66.9-----
2024-04-18 07:18 amWSW 12.0 15.0----29.96- 66.9-----
2024-04-18 07:12 amWSW 12.0 15.0----29.96- 66.9-----
2024-04-18 07:06 am SW 12.0 15.0----29.95- 66.9-----
2024-04-18 07:00 am SW 12.0 15.9----29.95+0.02 66.9-----
2024-04-18 06:54 am SW 12.0 17.1----29.95- 66.9-----
2024-04-18 06:48 am SW 12.0 17.1----29.95- 66.9-----
2024-04-18 06:42 am SW 13.0 17.1----29.94- 66.9-----
2024-04-18 06:36 am SW 13.0 17.1----29.94- 66.9-----
2024-04-18 06:30 am SW 13.0 17.1----29.94- 66.7-----
2024-04-18 06:24 am SW 13.0 17.1----29.94- 66.9-----
2024-04-18 06:18 am SW 14.0 18.1----29.94- 66.9-----
2024-04-18 06:12 am SW 14.0 17.1----29.93- 67.1-----
2024-04-18 06:06 am SW 13.0 17.1----29.94- 67.3-----
2024-04-18 06:00 am SW 14.0 17.1----29.93+0.00 67.3-----
2024-04-18 05:54 am SW 13.0 17.1----29.93- 67.5-----
2024-04-18 05:48 am SW 14.0 17.1----29.93- 67.5-----
2024-04-18 05:42 am SW 14.0 18.1----29.93- 67.6-----
2024-04-18 05:36 am SW 13.0 17.1----29.93- 67.6-----
2024-04-18 05:30 am SW 13.0 17.1----29.92- 67.6-----
2024-04-18 05:24 am SW 15.0 20.0----29.92- 68.0-----
2024-04-18 05:18 am SW 14.0 19.0----29.91- 68.0-----
2024-04-18 05:12 am SW 14.0 18.1----29.92- 68.2-----
2024-04-18 05:06 am SW 14.0 19.0----29.92- 68.4-----
2024-04-18 05:00 am SW 15.9 19.0----29.93-0.03 68.5-----
2024-04-18 04:54 am SW 15.0 19.0----29.93- 68.5-----
2024-04-18 04:48 am SW 15.0 17.1----29.93- 68.7-----
2024-04-18 04:42 am SW 14.0 17.1----29.93- 68.7-----
2024-04-18 04:36 am SW 13.0 18.1----29.93- 68.7-----
2024-04-18 04:30 am SW 13.0 15.9----29.93- 68.5-----
2024-04-18 04:24 am SW 15.0 18.1----29.93- 68.7-----
2024-04-18 04:18 am SW 15.0 21.0----29.93- 68.7-----
2024-04-18 04:12 am SW 15.0 19.0----29.93- 68.9-----
2024-04-18 04:06 am SW 15.9 19.0----29.93- 68.7-----
2024-04-18 04:00 am SW 15.0 20.0----29.93-0.03 69.1-----
2024-04-18 03:54 am SW 15.0 19.0----29.94- 68.9-----
2024-04-18 03:48 am SW 15.0 19.0----29.94- 68.9-----
2024-04-18 03:42 am SW 13.0 18.1----29.94- 68.7-----
2024-04-18 03:36 am SW 15.0 20.0----29.94- 69.1-----
2024-04-18 03:30 am SW 15.9 20.0----29.94- 68.9-----
2024-04-18 03:24 am SW 15.0 20.0----29.93- 69.1-----
2024-04-18 03:18 am SW 14.0 19.0----29.93- 69.1-----
2024-04-18 03:12 am SW 15.9 20.0----29.93- 69.3-----
2024-04-18 03:06 am SW 15.9 20.0----29.93- 69.3-----
2024-04-18 03:00 am SW 15.9 20.0----29.93-0.04 69.3-----
2024-04-18 02:54 am SW 15.0 20.0----29.94- 69.1-----
2024-04-18 02:48 am SW 15.0 19.0----29.94- 69.1-----
2024-04-18 02:42 am SW 14.0 19.0----29.95- 69.1-----
2024-04-18 02:36 am SW 15.0 19.0----29.95- 69.3-----
2024-04-18 02:30 am SW 15.0 18.1----29.95- 69.3-----
2024-04-18 02:24 am SW 14.0 18.1----29.95- 69.1-----
2024-04-18 02:18 am SW 14.0 18.1----29.95- 68.9-----
2024-04-18 02:12 am SW 13.0 17.1----29.96- 68.7-----
2024-04-18 02:06 am SW 14.0 18.1----29.96- 68.7-----
2024-04-18 02:00 am SW 14.0 18.1----29.96-0.02 68.9-----
2024-04-18 01:54 am SW 13.0 17.1----29.96- 68.9-----
2024-04-18 01:48 am SW 13.0 15.9----29.96- 68.9-----
2024-04-18 01:42 am SW 14.0 18.1----29.96- 69.1-----
2024-04-18 01:36 am SW 13.0 15.9----29.96- 69.1-----
2024-04-18 01:30 am SW 13.0 17.1----29.96- 69.3-----
2024-04-18 01:24 am SW 13.0 18.1----29.96- 69.4-----
2024-04-18 01:18 am SW 15.0 19.0----29.97- 69.6-----
2024-04-18 01:12 am SW 14.0 17.1----29.97- 69.6-----
2024-04-18 01:06 am SW 13.0 18.1----29.96- 69.4-----
2024-04-18 01:00 am SW 13.0 15.9----29.97-0.03 69.3-----
2024-04-18 12:54 amSSW 12.0 15.0----29.96- 69.4-----
2024-04-18 12:48 amSSW 12.0 17.1----29.96- 69.6-----
2024-04-18 12:42 amSSW 13.0 17.1----29.96- 69.6-----
2024-04-18 12:36 am SW 14.0 18.1----29.96- 69.6-----
2024-04-18 12:30 amSSW 15.0 18.1----29.97- 69.6-----
2024-04-18 12:24 amSSW 14.0 19.0----29.97- 69.6-----
2024-04-18 12:18 am SW 14.0 19.0----29.97- 69.6-----
2024-04-18 12:12 am SW 14.0 19.0----29.98- 69.6-----
2024-04-18 12:06 am SW 13.0 17.1----29.98- 69.8-----
2024-04-18 12:00 amSSW 13.0 17.1----29.98-0.03 69.8-----
2024-04-17 11:54 pmSSW 13.0 15.9----29.97- 69.8-----
2024-04-17 11:48 pmSSW 13.0 18.1----29.97- 70.0-----
2024-04-17 11:42 pmSSW 13.0 18.1----29.97- 70.0-----
2024-04-17 11:36 pmSSW 12.0 17.1----29.97- 70.0-----
2024-04-17 11:30 pmSSW 14.0 17.1----29.97- 70.2-----
2024-04-17 11:24 pmSSW 15.0 18.1----29.97- 70.3-----
2024-04-17 11:18 pmSSW 12.0 15.9----29.97- 70.2-----
2024-04-17 11:12 pmSSW 14.0 17.1----29.98- 70.2-----
2024-04-17 11:06 pmSSW 13.0 17.1----29.98- 69.6-----
2024-04-17 11:00 pmSSW 11.1 14.0----29.98-0.01 69.8-----
2024-04-17 10:54 pmSSW 12.0 14.0----29.98- 70.0-----
2024-04-17 10:48 pmSSW 12.0 14.0----29.98- 70.0-----
2024-04-17 10:42 pmSSW 12.0 15.0----29.99- 70.2-----
2024-04-17 10:36 pm S 12.0 15.0----29.99- 69.6-----
2024-04-17 10:30 pm S 12.0 15.0----29.99- 70.2-----
2024-04-17 10:24 pmSSW 11.1 14.0----30.00- 70.2-----
2024-04-17 10:18 pmSSW 12.0 15.0----30.00- 70.2-----
2024-04-17 10:12 pmSSW 12.0 15.0----30.00- 70.3-----
2024-04-17 10:06 pmSSW 11.1 14.0----30.00- 70.7-----
2024-04-17 10:00 pmSSW 12.0 15.9----30.00-0.01 71.4-----
2024-04-17 09:54 pm S 12.0 15.0----29.99- 71.8-----
2024-04-17 09:48 pm S 12.0 15.0----30.00- 71.8-----
2024-04-17 09:42 pm S 14.0 17.1----29.99- 71.4-----
2024-04-17 09:36 pm S 15.0 17.1----29.98- 71.6-----
2024-04-17 09:30 pm S 14.0 15.9----29.99- 71.8-----
2024-04-17 09:24 pm S 12.0 14.0----30.00- 71.4-----
2024-04-17 09:18 pm S 12.0 15.0----29.99- 71.1-----
2024-04-17 09:12 pm S 13.0 15.9----30.00- 71.2-----
2024-04-17 09:06 pm S 14.0 17.1----30.00- 71.2-----
2024-04-17 09:00 pm S 13.0 17.1----30.00+0.00 71.4-----
2024-04-17 08:54 pm S 15.0 19.0----30.00- 72.0-----